K6OUA-11 Weather Reports


Display with metric or nautical units.
time (UTC)temp
F
wind
direction
speed
MPH
gust
MPH
rain 1hr
in
rain 24hr
in
rain mn
in
humidity
%
barometer
mb
20190615223619 80 249 3.0 7.0 0.00 0.00 0.00 55 1006.9
20190615223323 80 240 4.0 7.0 0.00 0.00 0.00 55 1006.9
20190615223020 80 261 4.0 6.0 0.00 0.00 0.00 55 1007.0
20190615222414 80 283 7.0 7.0 0.00 0.00 0.00 55 1007.1
20190615222115 80 227 3.0 8.0 0.00 0.00 0.00 55 1007.1
20190615221511 80 272 6.0 7.0 0.00 0.00 0.00 56 1007.1
20190615221212 80 258 4.0 7.0 0.00 0.00 0.00 56 1007.1
20190615220909 80 249 2.0 7.0 0.00 0.00 0.00 56 1007.1
20190615220613 80 256 4.0 7.0 0.00 0.00 0.00 56 1007.1
20190615220306 80 220 0.0 4.0 0.00 0.00 0.00 57 1007.1
20190615215709 80 270 1.0 5.0 0.00 0.00 0.00 57 1007.2
20190615215405 79 238 3.0 7.0 0.00 0.00 0.00 57 1007.4
20190615215102 79 238 5.0 8.0 0.00 0.00 0.00 57 1007.2
20190615214507 79 249 5.0 11.0 0.00 0.00 0.00 58 1007.3
20190615160355 63 90 2.0 6.0 0.00 0.00 0.00 87 1008.3
20190615160057 63 90 4.0 6.0 0.00 0.00 0.00 87 1008.2
20190615155757 63 114 3.0 5.0 0.00 0.00 0.00 88 1008.3
20190615155452 62 117 2.0 4.0 0.00 0.00 0.00 88 1008.1
20190615154550 62 117 3.0 4.0 0.00 0.00 0.00 88 1008.4
20190615154249 62 168 1.0 4.0 0.00 0.00 0.00 88 1008.2
20190615153953 62 117 4.0 6.0 0.00 0.00 0.00 88 1008.3
20190615153645 62 123 3.0 5.0 0.00 0.00 0.00 88 1008.5
20190615153350 62 101 5.0 5.0 0.00 0.00 0.00 88 1008.1
20190615152745 62 132 2.0 3.0 0.00 0.00 0.00 88 1008.5
20190615152441 62 132 3.0 3.0 0.00 0.00 0.00 89 1008.4
20190615152146 62 155 1.0 4.0 0.00 0.00 0.00 89 1008.4
20190615151842 61 135 2.0 5.0 0.00 0.00 0.00 89 1008.3
20190615151537 61 112 5.0 5.0 0.00 0.00 0.00 90 1008.5
20190615151242 61 204 1.0 5.0 0.00 0.00 0.00 89 1008.3
20190615150940 61 121 1.0 5.0 0.00 0.00 0.00 90 1008.4
20190615150639 61 126 3.0 5.0 0.00 0.00 0.00 90 1008.4
20190615150333 61 132 3.0 5.0 0.00 0.00 0.00 90 1008.4
20190615150042 61 139 1.0 3.0 0.00 0.00 0.00 90 1008.4
20190615145734 61 123 3.0 4.0 0.00 0.00 0.00 90 1008.4
20190615145434 61 153 2.0 4.0 0.00 0.00 0.00 90 1008.3
20190615145141 61 153 1.0 5.0 0.00 0.00 0.00 91 1008.3
20190615144228 61 126 2.0 4.0 0.00 0.00 0.00 91 1008.3
20190615143926 61 164 1.0 4.0 0.00 0.00 0.00 90 1008.3
20190615143325 61 164 1.0 2.0 0.00 0.00 0.00 91 1008.3
20190615143021 60 135 2.0 3.0 0.00 0.00 0.00 91 1008.2
20190615142722 61 135 2.0 3.0 0.00 0.00 0.00 91 1008.4
20190615141820 60 130 2.0 5.0 0.00 0.00 0.00 91 1008.3
20190615141218 60 139 1.0 4.0 0.00 0.00 0.00 91 1008.1
20190615140913 60 117 3.0 4.0 0.00 0.00 0.00 91 1008.1
20190615140613 60 130 2.0 4.0 0.00 0.00 0.00 91 1008.1
20190615140311 60 90 3.0 5.0 0.00 0.00 0.00 91 1008.1
20190615140014 60 110 5.0 5.0 0.00 0.00 0.00 91 1008.0
20190615135712 60 67 2.0 4.0 0.00 0.00 0.00 91 1008.1
20190615135408 60 112 3.0 5.0 0.00 0.00 0.00 91 1008.0
20190615135109 60 150 3.0 4.0 0.00 0.00 0.00 91 1008.0
20190615134805 60 112 2.0 3.0 0.00 0.00 0.00 92 1008.0
20190615134504 60 90 0.0 3.0 0.00 0.00 0.00 92 1007.9
20190615134210 60 157 2.0 6.0 0.00 0.00 0.00 92 1007.9
20190615133902 60 150 3.0 6.0 0.00 0.00 0.00 92 1007.8
20190615133000 60 132 5.0 5.0 0.00 0.00 0.00 92 1007.6
20190615132658 59 128 2.0 6.0 0.00 0.00 0.00 92 1007.5
20190615132403 59 92 4.0 6.0 0.00 0.00 0.00 92 1007.5
20190615132055 59 117 3.0 4.0 0.00 0.00 0.00 93 1007.5
20190615131754 59 90 3.0 5.0 0.00 0.00 0.00 92 1007.4
20190615131458 59 112 4.0 6.0 0.00 0.00 0.00 93 1007.4
20190615131156 59 103 4.0 6.0 0.00 0.00 0.00 92 1007.3
20190615130851 59 120 4.0 4.0 0.00 0.00 0.00 93 1007.3
20190615130252 59 103 2.0 5.0 0.00 0.00 0.00 93 1007.4
20190615125950 59 90 5.0 5.0 0.00 0.00 0.00 93 1007.3
20190615125647 59 123 2.0 4.0 0.00 0.00 0.00 93 1007.4
20190615125346 59 180 0.0 1.0 0.00 0.00 0.00 93 1007.4
20190615125045 58 180 0.0 1.0 0.00 0.00 0.00 93 1007.4
20190615124745 58 225 0.0 1.0 0.00 0.00 0.00 93 1007.4
20190615124442 58 225 0.0 1.0 0.00 0.00 0.00 92 1007.4
20190615124142 58 180 1.0 1.0 0.00 0.00 0.00 93 1007.4
20190615123840 58 225 0.0 1.0 0.00 0.00 0.00 93 1007.4
20190615123541 58 225 0.0 1.0 0.00 0.00 0.00 93 1007.4
20190615123238 58 225 0.0 1.0 0.00 0.00 0.00 93 1007.2
20190615122937 58 180 0.0 0.0 0.00 0.00 0.00 93 1007.2
20190615122028 58 225 0.0 1.0 0.00 0.00 0.00 93 1007.0
20190615121727 58 225 1.0 1.0 0.00 0.00 0.00 93 1007.1
20190615121426 58 225 0.0 0.0 0.00 0.00 0.00 93 1007.0
20190615121125 58 225 0.0 0.0 0.00 0.00 0.00 93 1007.0
20190615120826 58 225 0.0 0.0 0.00 0.00 0.00 93 1006.9
20190615120523 58 270 0.0 0.0 0.00 0.00 0.00 93 1006.9
20190615120222 58 270 0.0 1.0 0.00 0.00 0.00 93 1007.0
20190615115921 58 270 1.0 1.0 0.00 0.00 0.00 93 1007.0
20190615115620 58 270 1.0 2.0 0.00 0.00 0.00 93 1007.1
20190615115320 58 270 1.0 1.0 0.00 0.00 0.00 93 1007.1
20190615115017 58 270 1.0 1.0 0.00 0.00 0.00 93 1007.1
20190615114719 58 252 1.0 2.0 0.00 0.00 0.00 93 1007.0
20190615114415 58 270 1.0 1.0 0.00 0.00 0.00 93 1007.2
20190615114114 58 270 1.0 2.0 0.00 0.00 0.00 93 1007.2
20190615113815 58 270 1.0 2.0 0.00 0.00 0.00 93 1007.1
20190615113512 58 270 2.0 2.0 0.00 0.00 0.00 93 1007.1
20190615113211 58 225 0.0 0.0 0.00 0.00 0.00 93 1007.1
20190615112910 58 225 0.0 0.0 0.00 0.00 0.00 93 1007.1
20190615112608 58 225 0.0 1.0 0.00 0.00 0.00 93 1007.2
20190615112307 58 225 0.0 0.0 0.00 0.00 0.00 93 1007.2
20190615112006 57 225 0.0 0.0 0.00 0.00 0.00 93 1007.1
20190615111705 57 225 0.0 0.0 0.00 0.00 0.00 93 1007.1
20190615111404 57 225 0.0 0.0 0.00 0.00 0.00 93 1007.1
20190615111103 57 225 0.0 0.0 0.00 0.00 0.00 93 1007.1
20190615110502 57 202 0.0 0.0 0.00 0.00 0.00 94 1007.0
20190615110201 57 202 0.0 0.0 0.00 0.00 0.00 93 1007.0
20190615105858 57 202 0.0 0.0 0.00 0.00 0.00 93 1007.0
20190615105557 57 202 0.0 0.0 0.00 0.00 0.00 94 1007.0
20190615105305 57 202 0.0 0.0 0.00 0.00 0.00 94 1006.9
20190615104654 57 202 0.0 0.0 0.00 0.00 0.00 94 1006.9
20190615104354 57 202 0.0 0.0 0.00 0.00 0.00 94 1006.9
20190615104052 57 270 0.0 0.0 0.00 0.00 0.00 94 1006.8
20190615103751 56 270 0.0 0.0 0.00 0.00 0.00 94 1006.8
20190615103451 56 270 0.0 1.0 0.00 0.00 0.00 93 1006.8
20190615103148 56 270 1.0 2.0 0.00 0.00 0.00 93 1006.8
20190615102547 56 270 2.0 2.0 0.00 0.00 0.00 94 1006.9
20190615102245 56 270 1.0 1.0 0.00 0.00 0.00 94 1006.9
20190615101945 56 258 1.0 1.0 0.00 0.00 0.00 94 1006.9
20190615101342 56 225 0.0 0.0 0.00 0.00 0.00 94 1006.9
20190615101041 56 225 0.0 1.0 0.00 0.00 0.00 95 1006.8
20190615100740 56 225 1.0 1.0 0.00 0.00 0.00 94 1006.8
20190615100439 56 270 0.0 2.0 0.00 0.00 0.00 94 1006.8
20190615100140 56 270 1.0 1.0 0.00 0.00 0.00 94 1006.8
20190615095840 56 225 0.0 0.0 0.00 0.00 0.00 94 1006.9
20190615095538 55 225 0.0 0.0 0.00 0.00 0.00 94 1006.8
20190615095234 55 225 0.0 0.0 0.00 0.00 0.00 94 1006.8
20190615094634 55 225 0.0 0.0 0.00 0.00 0.00 94 1006.9
20190615094332 55 225 0.0 1.0 0.00 0.00 0.00 94 1006.8
20190615094031 55 180 1.0 1.0 0.00 0.00 0.00 93 1006.9
20190615093428 55 180 0.0 0.0 0.00 0.00 0.00 93 1007.0
20190615093126 54 180 0.0 1.0 0.00 0.00 0.00 93 1007.0
20190615092825 54 180 0.0 1.0 0.00 0.00 0.00 93 1006.9
20190615092525 54 180 0.0 0.0 0.00 0.00 0.00 93 1006.8
20190615092223 54 180 0.0 1.0 0.00 0.00 0.00 93 1006.8
20190615091922 54 148 1.0 1.0 0.00 0.00 0.00 93 1006.9
20190615091621 54 180 0.0 1.0 0.00 0.00 0.00 92 1006.8
20190615091320 54 180 0.0 1.0 0.00 0.00 0.00 92 1006.8
20190615090719 55 180 0.0 1.0 0.00 0.00 0.00 92 1007.0
20190615090419 55 216 0.0 1.0 0.00 0.00 0.00 92 1007.1
20190615090115 55 225 0.0 0.0 0.00 0.00 0.00 93 1007.0
20190615085513 55 225 0.0 0.0 0.00 0.00 0.00 92 1007.1
20190615085212 55 225 0.0 0.0 0.00 0.00 0.00 93 1007.1
20190615084613 55 315 0.0 2.0 0.00 0.00 0.00 93 1007.0
20190615084313 55 315 2.0 2.0 0.00 0.00 0.00 93 1007.1
20190615084011 55 315 1.0 2.0 0.00 0.00 0.00 93 1007.2
20190615083706 55 292 1.0 2.0 0.00 0.00 0.00 93 1007.1
20190615083405 55 270 1.0 2.0 0.00 0.00 0.00 92 1007.2
20190615083104 55 270 2.0 2.0 0.00 0.00 0.00 92 1007.1
20190615082805 55 225 1.0 1.0 0.00 0.00 0.00 92 1007.0
20190615082502 56 225 1.0 1.0 0.00 0.00 0.00 92 1007.1
20190615082201 56 225 1.0 2.0 0.00 0.00 0.00 92 1007.0
20190615081901 56 225 1.0 1.0 0.00 0.00 0.00 91 1007.0
20190615081259 56 225 1.0 1.0 0.00 0.00 0.00 91 1007.1
20190615080957 56 225 0.0 1.0 0.00 0.00 0.00 91 1007.1
20190615080354 56 270 0.0 1.0 0.00 0.00 0.00 91 1007.0
20190615080055 56 225 0.0 0.0 0.00 0.00 0.00 91 1007.2
20190615075752 57 270 0.0 1.0 0.00 0.00 0.00 91 1007.1
20190615075451 57 270 0.0 1.0 0.00 0.00 0.00 91 1007.2
20190615075151 57 270 0.0 2.0 0.00 0.00 0.00 91 1007.2
20190615074849 57 270 1.0 3.0 0.00 0.00 0.00 91 1007.1
20190615074548 57 283 2.0 2.0 0.00 0.00 0.00 91 1007.2
20190615074248 57 315 1.0 3.0 0.00 0.00 0.00 91 1007.2
20190615073947 58 303 2.0 3.0 0.00 0.00 0.00 90 1007.3
20190615073648 58 270 2.0 3.0 0.00 0.00 0.00 90 1007.3
20190615073343 58 292 3.0 3.0 0.00 0.00 0.00 90 1007.2
20190615073042 58 281 3.0 3.0 0.00 0.00 0.00 90 1007.3
20190615072741 58 270 2.0 2.0 0.00 0.00 0.00 89 1007.2
20190615072440 58 270 1.0 3.0 0.00 0.00 0.00 89 1007.2
20190615071730 58 270 3.0 3.0 0.00 0.00 0.00 88 1007.2
20190615071541 58 270 3.0 3.0 0.00 0.00 0.00 88 1007.2
20190615071235 58 270 2.0 2.0 0.00 0.00 0.00 89 1007.2
20190615070936 58 270 1.0 1.0 0.00 0.00 0.00 88 1007.1
20190615070633 58 225 0.0 2.0 0.00 0.00 0.00 88 1007.1
20190615070332 58 270 1.0 3.0 0.00 0.00 0.00 89 1007.2
20190615070031 59 270 3.0 3.0 0.00 0.00 0.00 88 1007.3
20190615065732 59 270 3.0 3.0 0.00 0.00 0.00 88 1007.3
20190615065429 59 238 1.0 3.0 0.00 0.00 0.00 88 1007.4
20190615064827 59 270 1.0 3.0 0.00 0.00 0.00 87 1007.4
20190615064526 59 263 1.0 1.0 0.00 0.00 0.00 87 1007.4
20190615064224 59 238 1.0 1.0 0.00 0.00 0.00 87 1007.4
20190615063324 60 227 1.0 1.0 0.00 0.00 0.00 86 1007.6
20190615063020 60 234 1.0 1.0 0.00 0.00 0.00 86 1007.5
20190615062418 60 225 0.0 2.0 0.00 0.00 0.00 86 1007.8
20190615061816 60 245 1.0 2.0 0.00 0.00 0.00 86 1007.8
20190615061519 60 225 1.0 2.0 0.00 0.00 0.00 86 1007.8
20190615060916 60 234 1.0 2.0 0.00 0.00 0.00 86 1007.8
20190615060611 60 247 0.0 2.0 0.00 0.00 0.00 86 1007.9
20190615060009 60 247 1.0 2.0 0.00 0.00 0.00 86 1008.0
20190615055108 60 225 1.0 2.0 0.00 0.00 0.00 86 1007.9
20190615054807 60 225 1.0 2.0 0.00 0.00 0.00 85 1008.0
20190615054507 60 236 2.0 2.0 0.00 0.00 0.00 85 1008.1
20190615054202 60 270 1.0 2.0 0.00 0.00 0.00 85 1007.9
20190615053600 60 270 0.0 2.0 0.00 0.00 0.00 85 1008.0
20190615053303 60 234 1.0 3.0 0.00 0.00 0.00 85 1008.0
20190615052958 60 225 1.0 2.0 0.00 0.00 0.00 85 1008.0
20190615052356 60 270 1.0 1.0 0.00 0.00 0.00 85 1008.0
20190615052058 60 225 1.0 2.0 0.00 0.00 0.00 85 1007.9
20190615051755 60 225 1.0 1.0 0.00 0.00 0.00 84 1007.9
20190615050850 60 225 1.0 2.0 0.00 0.00 0.00 84 1008.0
20190615050248 60 238 1.0 2.0 0.00 0.00 0.00 84 1007.8
20190615045947 61 270 2.0 2.0 0.00 0.00 0.00 83 1008.0
20190615045647 61 225 1.0 1.0 0.00 0.00 0.00 84 1007.9
20190615045044 61 234 1.0 1.0 0.00 0.00 0.00 83 1007.9
20190615044742 61 238 1.0 2.0 0.00 0.00 0.00 83 1007.9
20190615044441 61 227 2.0 3.0 0.00 0.00 0.00 83 1007.7
20190615043544 61 263 1.0 1.0 0.00 0.00 0.00 82 1007.8
20190615043240 61 225 1.0 1.0 0.00 0.00 0.00 83 1007.9
20190615042337 61 229 1.0 2.0 0.00 0.00 0.00 82 1007.6
20190615041735 61 256 0.0 2.0 0.00 0.00 0.00 82 1007.7
20190615041129 62 225 0.0 1.0 0.00 0.00 0.00 82 1007.7
20190615040828 62 225 0.0 2.0 0.00 0.00 0.00 82 1007.4
20190615040527 62 225 1.0 2.0 0.00 0.00 0.00 82 1007.6
20190615035928 62 256 1.0 2.0 0.00 0.00 0.00 81 1007.6
20190615035626 62 225 0.0 2.0 0.00 0.00 0.00 81 1007.3
20190615035322 62 225 0.0 2.0 0.00 0.00 0.00 81 1007.6
20190615034724 62 243 1.0 2.0 0.00 0.00 0.00 81 1007.5
20190615034419 62 225 1.0 3.0 0.00 0.00 0.00 81 1007.4
20190615034119 62 225 1.0 3.0 0.00 0.00 0.00 81 1007.6
20190615033517 62 240 2.0 4.0 0.00 0.00 0.00 81 1007.3
20190615032914 62 234 1.0 3.0 0.00 0.00 0.00 80 1007.6
20190615032316 62 263 3.0 3.0 0.00 0.00 0.00 80 1007.1
20190615032016 62 252 3.0 3.0 0.00 0.00 0.00 79 1007.1
20190615031107 63 236 2.0 3.0 0.00 0.00 0.00 79 1007.5
20190615030806 63 245 2.0 3.0 0.00 0.00 0.00 79 1007.2
20190615030506 63 249 2.0 3.0 0.00 0.00 0.00 79 1007.3
20190615025904 63 247 1.0 3.0 0.00 0.00 0.00 78 1007.5
20190615025604 63 256 2.0 3.0 0.00 0.00 0.00 78 1007.3
20190615025307 63 227 1.0 3.0 0.00 0.00 0.00 78 1007.3
20190615024751 63 240 2.0 2.0 0.00 0.00 0.00 78 1007.1
20190615024658 63 240 2.0 2.0 0.00 0.00 0.00 78 1007.1
20190615024403 63 247 2.0 2.0 0.00 0.00 0.00 78 1007.4
20190615024057 63 225 1.0 3.0 0.00 0.00 0.00 77 1007.4
20190615023756 63 225 1.0 3.0 0.00 0.00 0.00 77 1007.2
20190615023459 64 227 3.0 4.0 0.00 0.00 0.00 77 1007.3
20190615023156 64 231 1.0 4.0 0.00 0.00 0.00 76 1007.2
20190615022853 64 240 2.0 4.0 0.00 0.00 0.00 76 1007.1
20190615022249 64 234 1.0 3.0 0.00 0.00 0.00 76 1007.2
20190615021948 64 229 1.0 3.0 0.00 0.00 0.00 76 1007.4
20190615021655 64 255 2.0 3.0 0.00 0.00 0.00 76 1007.4
20190615021348 64 230 3.0 3.0 0.00 0.00 0.00 76 1007.3
20190615021045 65 227 2.0 4.0 0.00 0.00 0.00 75 1007.3
20190615020443 65 254 3.0 5.0 0.00 0.00 0.00 74 1007.3
20190615020143 65 263 4.0 5.0 0.00 0.00 0.00 75 1007.3
20190615015841 65 238 2.0 4.0 0.00 0.00 0.00 74 1007.4
20190615015539 65 238 1.0 3.0 0.00 0.00 0.00 74 1007.3
20190615014939 66 202 2.0 5.0 0.00 0.00 0.00 73 1007.3
20190615014639 66 258 3.0 5.0 0.00 0.00 0.00 73 1007.4
20190615014335 66 235 4.0 6.0 0.00 0.00 0.00 73 1007.4
20190615013734 66 270 5.0 5.0 0.00 0.00 0.00 72 1007.3
20190615013433 67 230 1.0 5.0 0.00 0.00 0.00 72 1007.3
20190615013135 67 250 3.0 4.0 0.00 0.00 0.00 72 1007.2
20190615012829 67 254 3.0 5.0 0.00 0.00 0.00 72 1007.1
20190615012528 67 270 4.0 6.0 0.00 0.00 0.00 71 1007.2
20190615012227 67 234 4.0 6.0 0.00 0.00 0.00 71 1007.2
20190615011630 67 243 3.0 5.0 0.00 0.00 0.00 71 1007.1
20190615011325 68 252 4.0 6.0 0.00 0.00 0.00 71 1007.2
20190615010722 68 236 4.0 7.0 0.00 0.00 0.00 71 1007.2
20190615005818 68 243 3.0 6.0 0.00 0.00 0.00 70 1007.1
20190615005518 68 265 4.0 6.0 0.00 0.00 0.00 70 1007.2
20190615005218 68 247 3.0 5.0 0.00 0.00 0.00 70 1007.3
20190615004615 68 258 3.0 6.0 0.00 0.00 0.00 70 1007.3
20190615004321 68 237 6.0 6.0 0.00 0.00 0.00 70 1007.3
20190615004012 69 243 4.0 7.0 0.00 0.00 0.00 69 1007.1
20190615003714 69 270 4.0 6.0 0.00 0.00 0.00 69 1007.2
20190615003410 69 261 4.0 6.0 0.00 0.00 0.00 68 1007.3
20190615003108 69 270 6.0 7.0 0.00 0.00 0.00 68 1007.4
20190615002929 69 255 5.0 6.0 0.00 0.00 0.00 68 1007.5
20190615002807 69 255 5.0 6.0 0.00 0.00 0.00 68 1007.5
20190615002507 69 290 5.0 6.0 0.00 0.00 0.00 68 1007.6
20190615002205 70 232 5.0 6.0 0.00 0.00 0.00 68 1007.6
20190615001904 70 240 5.0 7.0 0.00 0.00 0.00 67 1007.4
20190615001603 70 232 5.0 7.0 0.00 0.00 0.00 68 1007.4
20190615001303 70 245 5.0 7.0 0.00 0.00 0.00 67 1007.4
20190615000700 70 249 4.0 7.0 0.00 0.00 0.00 66 1007.4
20190615000059 71 250 6.0 8.0 0.00 0.00 0.00 66 1007.5
20190614235455 71 250 5.0 7.0 0.00 0.00 0.00 65 1007.5
20190614235154 72 191 2.0 7.0 0.00 0.00 0.00 65 1007.5
20190614234854 72 242 5.0 7.0 0.00 0.00 0.00 65 1007.5
20190614234257 72 220 3.0 8.0 0.00 0.00 0.00 64 1007.4
20190614233950 72 240 5.0 6.0 0.00 0.00 0.00 64 1007.5
20190614233351 72 265 8.0 8.0 0.00 0.00 0.00 63 1007.5
20190614232750 73 240 4.0 6.0 0.00 0.00 0.00 63 1007.5
20190614232143 73 272 4.0 7.0 0.00 0.00 0.00 61 1007.4
20190614231845 74 256 3.0 7.0 0.00 0.00 0.00 61 1007.5
20190614231546 0 282 4.0 9.0 0.00 0.00 0.00 61 100.7
20190614231543 74 282 4.0 9.0 0.00 0.00 0.00 61 1007.4
20190614230939 75 263 6.0 10.0 0.00 0.00 0.00 59 1007.4
20190614230641 76 256 4.0 8.0 0.00 0.00 0.00 59 1007.5
20190614230341 77 265 7.0 7.0 0.00 0.00 0.00 59 1007.4
20190614230035 77 182 2.0 5.0 0.00 0.00 0.00 59 1007.7
20190614225734 76 146 2.0 4.0 0.00 0.00 0.00 59 1007.5
20190614225436 76 220 2.0 6.0 0.00 0.00 0.00 60 1007.5
20190614224831 76 247 5.0 10.0 0.00 0.00 0.00 60 1007.7
20190614224530 76 254 5.0 10.0 0.00 0.00 0.00 60 1007.6
20190614224229 76 252 7.0 7.0 0.00 0.00 0.00 61 1007.6